sat.trackr.live / text

‹ back to catalog

ONEWEB-0206

NORAD 48227 · 2021-031T

PAYLOAD ACTIVE UNKNOWN

§ Identity

Operator
Country
UK
Launch date
2021-04-25
Launch site
VOSTO
Launch vehicle
Mass (kg)
RCS (m²)

Purposes: comms

External: N2YO · Heavens-Above · Gunter

§ Orbital elements

Epoch: 2026-05-25T02:57:27.180000Z

Period
109.55 min
Inclination
87.8948°
Eccentricity
0.0001879
Mean motion
13.14502745 rev/d
Perigee alt
1,204.4 km
Apogee alt
1,207.2 km
Semi-major
7,583.9 km
B*
-4.1164e-4
RAAN
294.2968°
Arg perigee
92.3449°
Mean anomaly
267.7896°
Rev number
24,519

§ Raw data

ONEWEB-02061 48227U 21031T   26145.12323125 -.00000140  00000+0 -41164-3 0  99922 48227  87.8948 294.2968 0001879  92.3449 267.7896 13.14502745245193

JSON: /api/v1/satellites/48227 · /tle

For live sub-satellite position, see the globe view (requires WebGL).

§ Visibility from observer

Set your observer location to see the next 7 days of passes ≥ 10°. The values pass through the URL so the page stays shareable.

No JS? Fill the form by hand. The geolocation button needs JavaScript.